星链-2402 (STARLINK-2402 )

导读

STARLINK-2402是美国太空探索技术公司发射的星链计划卫星,于2021年3月11日发射升空,属于Starlink星座组网卫星。星链计划旨在构建全球卫星互联网,该卫星承担低轨通信服务的组网任务,运行于近地轨道,为全球提供宽带互联网接入服务,推动全球太空通信网络的覆盖与建设。

Basic Information
目录编号:
47819
目录名称:
STARLINK-2402
国际标识:
2021-018AJ
轨道中心:
EARTH
卫星名称:
星链-2402
卫星全名:
星链-2402 (STARLINK-2402 )
卫星状态:
在轨 (已飞行2010 天)
发射日期:
2021-03-11 UTC
国别 :
美国 (US)
星等 :
--
This satellite is enrolled in the Space Conjunction Data Service (SCDS) and the current flight risk assessment level is: No High Risk
Orbit Information
数据来源 国际轨道数据 AOE轨道数据
星历时间 2026-09-11T06:51:57+0800
11小时前
查看轨道信息
2026-09-10T02:00:00+0800
1天前
查看轨道信息
半长轴 6848.904km 6848.82km
偏心率 0.0001553 0.0001391
轨道倾角 53.158° 53.158°
近地点辐角 88.296° 77.625°
升交点赤经 100.877° 106.477°
平近点角 271.822° 126.773°
近地点 469.703km 469.73km
远地点 471.831km 471.636km
周期 94.014分钟 94.012分钟
每日圈数 15.316912 15.317194
Detailed Information
固有亮度:
5
最大亮度:
2.5
卫星平台:
Starlink V1.0
覆盖范围:
全球
运营商:
太空探索技术公司
运营商所在国:
美国
制造商(研发单位):
太空探索技术公司
制造商所在国:
美国
使用方式:
暂无
Satellite Introduction
星链(Starlink)计划是由太空探索技术公司(SpaceX)提出的一个巨型低轨卫星互联网星座项目,计划在2019年至2024年间在太空搭建由约1.2万颗卫星组成的“星链”网络,其中1584颗将部署在地球上空550千米处的近地轨道,并从2020年开始工作。该卫星仍在工作。
2D Orbit Map
3D Orbit Map
Orbit Altitude Analysis Chart
Orbit Inclination Analysis Chart
Orbit Comprehensive Analysis Chart
View Comprehensive Chart
Conjunction Data List
Event ID Objects TCA Miss Dist (km) Collision Risk Probability Collision Risk Index (CRI) Action
CDM_260906-122104-781906-868621
2026-09-06T
12:21:57+0000
2.819 km
极远距离
8.486125E-7 极低风险 0.34
Miss Distance Evolution Trend with All Objects
Collision Probability Evolution Trend with All Objects